Weather History for KBDE - February, 2013

Change the Weather History Date:

Tuesday, February 12, 2013

  Actual Average Record
Temperature  
Mean Temperature 21 °F -  
Max Temperature 30 °F 22 °F 42 °F (1977)
Min Temperature 12 °F -5 °F -37 °F (1936)
Degree Days  
Heating Degree Days 44    
Moisture  
Dew Point 15 °F    
Average Humidity 81    
Maximum Humidity 92    
Minimum Humidity 66    
Precipitation  
Precipitation 0.00 in - - ()
Sea Level Pressure  
Sea Level Pressure 29.77 in    
Wind  
Wind Speed 9 mph (SW)    
Max Wind Speed 12 mph    
Max Gust Speed -    
Visibility 10 miles    
Events      
Averages and records for this station are not official NWS values.
T = Trace of Precipitation, MM = Missing Value Source: NWS Daily Summary

Daily Weather History Graph

Daily Weather History Graph

Search for Another Location

Airport or City:

Trip Planner

Search our weather history database for the weather conditions in past years. The results will help you decide how hot, cold, wet, or windy it might be!

Date:

Astronomy

Feb. 12, 2013 Rise Set
Actual Time 7:30 AM CST 5:35 PM CST
Civil Twilight 6:58 AM CST 6:07 PM CST
Nautical Twilight 6:21 AM CST 6:44 PM CST
Astronomical Twilight 5:44 AM CST 7:21 PM CST
Moon 8:10 AM CST (2/12) 8:57 PM CST (2/12)
Length of Visible Light 11h 09m
Length of Day
10h 04m
Waxing Crescent, 7% of the Moon is Illuminated
Feb 12
Waxing Crescent
Feb 17
First Quarter
Feb 25
Full
Mar 4
Last Quarter
Mar 11
New

Hourly Weather History & Observations

Time (CST) Temp. Windchill Dew Point Humidity Pressure Visibility Wind Dir Wind Speed Gust Speed Precip Events Conditions
12:53 AM 12.0 °F 0.5 °F 9.0 °F 88% 29.90 in 10.0 mi South 8.1 mph - N/A   Overcast
1:28 AM 12.2 °F -1.8 °F 10.4 °F 92% 29.82 in 10.0 mi SSW 11.5 mph - N/A   Overcast
1:53 AM 12.9 °F -0.9 °F 10.0 °F 88% 29.88 in 10.0 mi SSW 11.5 mph - N/A   Overcast
2:53 AM 14.0 °F 2.0 °F 10.9 °F 88% 29.86 in 10.0 mi SSW 9.2 mph - N/A   Overcast
3:53 AM 15.1 °F 2.5 °F 12.0 °F 88% 29.85 in 10.0 mi SSW 10.4 mph - N/A   Overcast
4:53 AM 16.0 °F 3.6 °F 12.9 °F 88% 29.81 in 10.0 mi South 10.4 mph - N/A   Mostly Cloudy
5:10 AM 15.8 °F 2.7 °F 12.2 °F 86% 29.74 in 10.0 mi South 11.5 mph - N/A   Mostly Cloudy
5:31 AM 15.8 °F 3.4 °F 12.2 °F 86% 29.74 in 10.0 mi SSW 10.4 mph - N/A   Overcast
5:53 AM 16.0 °F 3.6 °F 12.9 °F 88% 29.81 in 10.0 mi South 10.4 mph - N/A   Overcast
6:53 AM 17.1 °F 5.8 °F 14.0 °F 88% 29.80 in 10.0 mi SSW 9.2 mph - N/A   Overcast
7:53 AM 18.0 °F 6.1 °F 15.1 °F 88% 29.80 in 10.0 mi SSW 10.4 mph - N/A   Overcast
8:53 AM 19.0 °F 9.0 °F 15.1 °F 85% 29.79 in 10.0 mi SSW 8.1 mph - N/A   Overcast
9:53 AM 19.9 °F 9.3 °F 15.1 °F 81% 29.79 in 10.0 mi SW 9.2 mph - N/A   Overcast
10:53 AM 21.0 °F 13.4 °F 16.0 °F 81% 29.78 in 10.0 mi SW 5.8 mph - N/A   Clear
11:53 AM 25.0 °F 19.3 °F 17.1 °F 72% 29.77 in 10.0 mi SSW 4.6 mph - N/A   Clear
12:53 PM 28.0 °F 21.7 °F 18.0 °F 66% 29.75 in 10.0 mi WSW 5.8 mph - N/A   Clear
1:53 PM 28.9 °F 21.1 °F 19.0 °F 67% 29.74 in 10.0 mi SW 8.1 mph - N/A   Clear
2:53 PM 30.0 °F 22.4 °F 19.9 °F 66% 29.72 in 10.0 mi SW 8.1 mph - N/A   Scattered Clouds
3:53 PM 30.0 °F 23.2 °F 19.9 °F 66% 29.72 in 10.0 mi WSW 6.9 mph - N/A   Overcast
4:53 PM 27.0 °F 16.7 °F 18.0 °F 69% 29.71 in 10.0 mi SW 11.5 mph - N/A   Mostly Cloudy
5:53 PM 25.0 °F 19.3 °F 17.1 °F 72% 29.72 in 10.0 mi WSW 4.6 mph - N/A   Clear
6:53 PM 24.1 °F 14.4 °F 17.1 °F 75% 29.72 in 10.0 mi WSW 9.2 mph - N/A   Overcast
7:53 PM 21.9 °F 13.4 °F 16.0 °F 78% 29.71 in 10.0 mi WSW 6.9 mph - N/A   Clear
8:53 PM 19.9 °F 11.1 °F 16.0 °F 85% 29.71 in 10.0 mi SW 6.9 mph - N/A   Clear
9:53 PM 19.9 °F 12.1 °F 17.1 °F 89% 29.70 in 10.0 mi SW 5.8 mph - N/A   Clear
10:53 PM 21.9 °F 14.5 °F 18.0 °F 85% 29.68 in 10.0 mi WSW 5.8 mph - N/A   Mostly Cloudy
11:53 PM 23.0 °F 13.9 °F 19.0 °F 85% 29.67 in 10.0 mi SW 8.1 mph - N/A   Overcast